Location: Atlantic Beach
(40.5890°N, 73.7290°W)
Time: 20:09:15
(UTC+00:00)

N. Korean satellite - Visible Passes

Search period start: 22 January 2021 00:00
Search period end: 01 February 2021 00:00
Orbit: 452 x 502 km, 97.2° (Epoch: 22 January)

Date Brightness Start Highest point End Pass type
(mag) Time Alt. Az. Time Alt. Az. Time Alt. Az.
22 Jan 9.9 09:18:48 10° ENE 09:19:44 11° E 09:20:39 10° ESE visible
22 Jan 6.9 10:50:01 10° N 10:53:15 38° WNW 10:56:27 10° SW visible
23 Jan 6.3 10:23:16 10° NNE 10:26:45 87° E 10:30:09 10° SSW visible
23 Jan 9.8 22:31:54 10° SW 22:34:20 17° W 22:36:45 10° NW visible
24 Jan 8.0 09:56:55 10° NNE 10:00:08 35° E 10:03:17 10° SSE visible
24 Jan 8.3 11:31:34 10° NW 11:33:05 12° WNW 11:34:36 10° W visible
25 Jan 9.4 09:31:10 10° NE 09:33:24 16° E 09:35:36 10° SE visible
25 Jan 7.4 11:03:50 10° NNW 11:06:44 25° WNW 11:09:35 10° SW visible
26 Jan 6.4 10:36:52 10° N 10:40:16 58° WNW 10:43:37 10° SSW visible
26 Jan 10.2 22:46:49 10° WSW 22:48:00 11° W 22:49:11 10° WNW visible
27 Jan 7.1 10:10:17 10° NNE 10:13:41 55° E 10:17:01 10° S visible
28 Jan 8.8 09:44:10 10° NE 09:47:00 24° E 09:49:48 10° SSE visible
28 Jan 7.9 11:17:48 10° NNW 11:20:09 17° WNW 11:22:29 10° WSW visible
29 Jan 9.9 09:19:15 10° ENE 09:20:13 11° E 09:21:11 10° ESE visible
29 Jan 6.9 10:50:32 10° N 10:53:43 37° WNW 10:56:53 10° SW visible
30 Jan 6.3 10:23:45 10° NNE 10:27:11 89° ESE 10:30:35 10° SSW visible
31 Jan 8.0 09:57:21 10° NNE 10:00:33 36° E 10:03:42 10° SSE visible
31 Jan 8.3 11:32:07 10° NW 11:33:31 12° WNW 11:34:54 10° W visible
